COSMOS 1275 DEB

Satellite information

Favourite Embed

Satellite Type and Status

DEBRISIN ORBIT

Key statistics

Satellite COSMOS 1275 DEB at a glance.

Uptime

16162

Days in orbit

Revolutions

≈ 14.0

Per day

Orbit

LEO

Low Earth Orbit

Inclination

83.0

Latest

Satellite identification and parameters

Extended collection of information and parameters for COSMOS 1275 DEB.

Object identification

Identified? True

Debris? True

Object name: COSMOS 1275 DEB

International designator: 1981-053EG

Object number (NORAD): 12952

Object ID (CCSDS): 12952

Country: COMMONWEALTH OF INDEPENDENT STATES (CIS)

Current information (Y/N): Y

RCS size: SMALL

Orbital parameters

Period: 102.955 minutes

Inclination: 82.9626 deg

SMA: 7276.558 km

Apoapsis: 903.219 km

Periapsis: 893.627 km

RAAN: 194.2889 deg

Eccentricy: 0.00065909

Argument of periapsis: 260.626 deg

Mean anomaly: 153.42 deg

Mean motion: 13.98665295 rev/day

Mean motion (dot): 0.00001526 rev/day2

B* drag term: 0.0010519669 1/REarth

Two-line elements (TLE)

Creation date: Sept. 3, 2025, 2:21 a.m.

Reference frame: TEME

Reference center: EARTH

Epoch: Sept. 2, 2025, 8:58 p.m. UTC

TLE line 0: 0 COSMOS 1275 DEB

TLE line 1: 1 12952U 81053EG 25245.87412094 .00001526 00000-0 10520-2 0 9993

TLE line 2: 2 12952 82.9626 194.2889 0006591 260.6260 153.4200 13.98665295222654

Live tracking on map

Real-time ground track for satellite COSMOS 1275 DEB.

In-orbit conjunctions

A list of the most updated potential collisions computed for object COSMOS 1275 DEB.

Target Orbit TCA Probability of collision Miss distance Type
SURCAL 159 LEO 2025-08-13 02:28:35 0.0005905208 110.0 (m) PAYLOAD
NOAA 16 DEB SSO 2024-09-25 21:22:54 0.0002126489 434.0 (m) DEBRIS

Associated space launch

Navigation satellite providing location information for the Tsiklon-B navigation system

COSMOS 1275 DEB was lifted into orbit during the mission ‘Kosmos-3M | Parus 27’, on board a Kosmos-3M space rocket.

The launch took place on June 4, 1981, 3:41 p.m. from 132/2.

For more information about the launch, click the button.

Launch to space Kosmos-3M | Parus 27
Kosmos-3M | Parus 27

Agency: N/A

Status: Launch Successful

Launch date: June 4, 1981, 3:41 p.m. UTC

Rocket: Kosmos-3M

Launch pad: 132/2

Location: Plesetsk Cosmodrome, Russian Federation

...

Latest news about this satellite

There are no fresh news available about this satellite. Check back as we update our databases every day.


Newsletter sign-up

Weekly statistics, charts and insights to help you stay on top of the space industry.